COSMOS 534

Satellite information

Favourite Embed

Satellite Type and Status

PAYLOADIN ORBIT

Key statistics

Satellite COSMOS 534 at a glance.

Uptime

19305

Days in orbit

Revolutions

≈ 12.6

Per day

Orbit

LEO

Low Earth Orbit

Inclination

74.0

Latest

Satellite identification and parameters

Extended collection of information and parameters for COSMOS 534.

Object identification

Identified? True

Debris? False

Object name: COSMOS 534

International designator: 1972-087G

Object number (NORAD): 6269

Object ID (CCSDS): 6269

Country: COMMONWEALTH OF INDEPENDENT STATES (CIS)

Current information (Y/N): Y

RCS size: MEDIUM

Orbital parameters

Period: 113.954 minutes

Inclination: 74.0333 deg

SMA: 7785.967 km

Apoapsis: 1467.44 km

Periapsis: 1348.223 km

RAAN: 62.6599 deg

Eccentricy: 0.00765588

Argument of periapsis: 208.8393 deg

Mean anomaly: 207.7297 deg

Mean motion: 12.63670828 rev/day

Mean motion (dot): -0.0000002 rev/day2

B* drag term: -0.000015514135 1/REarth

Two-line elements (TLE)

Creation date: Sept. 8, 2025, 6:18 p.m.

Reference frame: TEME

Reference center: EARTH

Epoch: Sept. 8, 2025, 12:24 p.m. UTC

TLE line 0: 0 COSMOS 534

TLE line 1: 1 06269U 72087G 25251.51684083 -.00000020 00000-0 -15514-4 0 9991

TLE line 2: 2 06269 74.0333 62.6599 0076559 208.8393 207.7297 12.63670828438054

Live tracking on map

Real-time ground track for satellite COSMOS 534.

In-orbit conjunctions

A list of the most updated potential collisions computed for object COSMOS 534.

Target Orbit TCA Probability of collision Miss distance Type
COSMOS 2499 DEB LEO 2024-08-14 10:59:05 0.0001572697 695.0 (m) DEBRIS

Associated space launch

Military communications satellites

COSMOS 534 was lifted into orbit during the mission ‘Kosmos-3M | Strela-1M 33-40’, on board a Kosmos-3M space rocket.

The launch took place on Nov. 1, 1972, 2:08 a.m. from 132/2.

For more information about the launch, click the button.

Launch to space Kosmos-3M | Strela-1M 33-40
Kosmos-3M | Strela-1M 33-40

Agency: N/A

Status: Launch Successful

Launch date: Nov. 1, 1972, 2:08 a.m. UTC

Rocket: Kosmos-3M

Launch pad: 132/2

Location: Plesetsk Cosmodrome, Russian Federation

...

Latest news about this satellite

There are no fresh news available about this satellite. Check back as we update our databases every day.


Newsletter sign-up

Weekly statistics, charts and insights to help you stay on top of the space industry.